FW5771 Shelton WA US current weather conditions

sailwx.info

Wind from 215

Air temperature 7.8° C
Dewpoint 6.9° C

Last reported at 2019-Dec-08 15:46 UTC.
Time now 2019-Dec-08 16:36 UTC

Location: N 47°09' W 123°02'.
View on Google Maps.

See reports from other nearby stations

  
Tides and Currents Weather Stations Pressure Air Temp Water Temp Dewpoint Dewpoint Depression Visibility Wind Speed Wind Dir Waves Ship Positions
date/time (UTC)wind fromknots sea level pressurealtimeterstation pressurevisibilityair tempwater tempwave heightnotes
2019-Dec-08 15:46 215 7.8
2019-Dec-08 15:31 215 7.2
2019-Dec-08 15:15 215 7.2
2019-Dec-08 15:01 215 7.2
2019-Dec-08 14:46 215 7.2
2019-Dec-08 14:31 215 7.2
2019-Dec-08 14:16 215 7.2
2019-Dec-08 14:00 215 7.2
2019-Dec-08 13:45 215 7.2
2019-Dec-08 13:31 271 7.8
2019-Dec-08 13:15 271 7.8
2019-Dec-08 13:01 271 7.8
2019-Dec-08 12:46 271 7.8
2019-Dec-08 12:31 271 7.8
2019-Dec-08 12:15 271 7.8
2019-Dec-08 12:00 271 7.8
2019-Dec-08 11:30 271 1 gusting 3 7.8
2019-Dec-08 11:15 268 7.8
2019-Dec-08 11:00 278 1 gusting 2 7.8
2019-Dec-08 10:45 273 7.8
2019-Dec-08 10:30 273 7.8
2019-Dec-08 10:15 259 8.3
2019-Dec-08 10:00 257 8.3
2019-Dec-08 09:47 266 0 gusting 3 8.3
2019-Dec-08 09:32 244 8.3
2019-Dec-08 09:17 244 8.3
2019-Dec-08 09:02 244 8.3
2019-Dec-08 08:47 244 8.3
2019-Dec-08 08:33 244 8.3
2019-Dec-08 08:17 244 7.8
2019-Dec-08 08:01 244 7.8
2019-Dec-08 07:46 244 8.3
2019-Dec-08 07:30 244 7.8
2019-Dec-08 07:16 244 7.8
2019-Dec-08 07:01 244 7.8
2019-Dec-08 06:45 244 8.3
2019-Dec-08 06:31 244 8.3
2019-Dec-08 06:16 244 8.3
2019-Dec-08 06:01 244 8.9
2019-Dec-08 05:45 244 8.9
2019-Dec-08 05:31 244 8.9
2019-Dec-08 05:15 229 8.9
2019-Dec-08 05:00 229 9.4
2019-Dec-08 04:30 288 9.4
2019-Dec-08 04:15 288 9.4
2019-Dec-08 04:01 288 9.4
2019-Dec-08 03:45 288 9.4
2019-Dec-08 03:30 288 10.0
2019-Dec-08 03:15 288 10.0
2019-Dec-08 03:00 288 9.4
2019-Dec-08 02:45 288 9.4
2019-Dec-08 02:30 288 9.4
2019-Dec-08 02:15 288 9.4
2019-Dec-08 02:00 288 9.4
2019-Dec-08 01:45 288 9.4
2019-Dec-08 01:30 288 9.4
2019-Dec-08 01:15 306 9.4
2019-Dec-08 01:00 306 9.4
2019-Dec-08 00:45 306 9.4
2019-Dec-08 00:30 306 9.4
2019-Dec-08 00:15 306 10.0
2019-Dec-08 00:00 306 10.0
2019-Dec-07 23:45 306 10.0
2019-Dec-07 23:30 306 10.0
2019-Dec-07 23:15 306 10.0
2019-Dec-07 23:00 306 10.0
2019-Dec-07 22:45 306 10.0
2019-Dec-07 22:30 306 10.0
2019-Dec-07 22:15 306 10.0
2019-Dec-07 22:02 306 10.0
2019-Dec-07 21:31 305 10.0
2019-Dec-07 21:17 306 10.0
2019-Dec-07 21:01 291 9.4
2019-Dec-07 20:46 072 9.4
2019-Dec-07 20:32 072 9.4
2019-Dec-07 20:17 072 9.4
2019-Dec-07 20:01 072 8.9
2019-Dec-07 19:46 072 8.9
2019-Dec-07 19:31 072 8.9
2019-Dec-07 19:16 072 8.9
2019-Dec-07 19:01 072 8.3
2019-Dec-07 18:46 072 8.3
2019-Dec-07 18:31 072 8.3
2019-Dec-07 18:16 072 8.3
2019-Dec-07 18:01 072 0 gusting 1 8.3
2019-Dec-07 17:46 072 8.3
2019-Dec-07 17:32 072 8.3
2019-Dec-07 17:16 072 7.8
2019-Dec-07 17:01 072 7.8
2019-Dec-07 16:46 072 7.8
2019-Dec-07 16:31 072 7.8
2019-Dec-07 16:15 073 7.8
2019-Dec-07 16:01 113 7.8
2019-Dec-07 15:45 113 7.8
2019-Dec-07 15:31 113 7.8
2019-Dec-07 15:16 113 7.8
2019-Dec-07 15:01 113 7.8
2019-Dec-07 14:46 113 7.8
2019-Dec-07 14:30 113 7.8
2019-Dec-07 14:16 113 7.8
2019-Dec-07 14:01 113 7.8
2019-Dec-07 13:31 054 7.8
2019-Dec-07 13:15 054 7.8
2019-Dec-07 13:00 052 7.8
2019-Dec-07 12:45 068 2 gusting 5 8.3
2019-Dec-07 12:31 061 1 gusting 5 8.3
2019-Dec-07 12:15 103 3 gusting 6 8.3
2019-Dec-07 12:01 094 1 gusting 5 8.3
2019-Dec-07 11:45 066 1 gusting 6 8.3
2019-Dec-07 11:30 157 0 gusting 5 7.8
2019-Dec-07 11:15 074 7.8
2019-Dec-07 11:00 096 7.8
2019-Dec-07 10:45 055 7.8
2019-Dec-07 10:30 055 7.2
2019-Dec-07 10:15 055 7.2
2019-Dec-07 10:00 055 7.2
2019-Dec-07 09:47 055 7.2
2019-Dec-07 09:33 055 7.2
2019-Dec-07 09:17 055 7.2
2019-Dec-07 09:02 055 7.8
2019-Dec-07 08:47 055 7.2
2019-Dec-07 08:32 055 7.2
2019-Dec-07 08:01 055 7.2
2019-Dec-07 07:46 055 7.2
2019-Dec-07 07:31 055 7.2
2019-Dec-07 07:01 055 7.2
2019-Dec-07 06:31 055 7.2
2019-Dec-07 06:17 055 7.2
2019-Dec-07 06:01 055 7.2
2019-Dec-07 05:46 055 7.2
2019-Dec-07 05:16 055 7.2
2019-Dec-07 05:01 055 7.2
2019-Dec-07 04:46 055 7.2
2019-Dec-07 04:31 055 7.2
2019-Dec-07 04:16 055 7.8
2019-Dec-07 04:01 055 8.3
2019-Dec-07 03:46 055 8.3
2019-Dec-07 03:31 055 7.8
2019-Dec-07 03:16 055 8.3
2019-Dec-07 03:01 055 7.8
2019-Dec-07 02:47 055 7.8
2019-Dec-07 02:31 055 7.8
2019-Dec-07 02:16 055 7.8
2019-Dec-07 02:01 055 8.3
2019-Dec-07 01:45 055 8.3
2019-Dec-07 01:31 055 7.8
2019-Dec-07 01:15 055 8.3
2019-Dec-07 01:01 055 8.3
2019-Dec-07 00:45 055 8.3
2019-Dec-07 00:31 055 8.3
2019-Dec-07 00:15 055 0 gusting 3 8.3
2019-Dec-07 00:00 099 0 gusting 2 8.3
2019-Dec-06 23:45 099 8.3
2019-Dec-06 23:30 099 8.3
2019-Dec-06 23:15 252 8.3
2019-Dec-06 23:00 256 8.3
2019-Dec-06 22:30 256 8.3
2019-Dec-06 22:15 256 8.3
2019-Dec-06 22:01 256 8.3
2019-Dec-06 21:46 256 8.3
2019-Dec-06 21:32 256 8.3
2019-Dec-06 21:17 256 7.8
2019-Dec-06 21:01 216 7.8
2019-Dec-06 20:47 329 7.8
2019-Dec-06 20:31 115 7.8
2019-Dec-06 20:18 115 7.8
2019-Dec-06 20:01 115 7.2
2019-Dec-06 19:46 119 0 gusting 2 7.8
2019-Dec-06 19:31 076 7.2
2019-Dec-06 19:16 053 7.2
2019-Dec-06 19:01 327 7.2
2019-Dec-06 18:46 070 0 gusting 2 7.2
2019-Dec-06 18:32 076 7.2
2019-Dec-06 18:16 077 0 gusting 3 6.7
2019-Dec-06 18:01 096 6.7
2019-Dec-06 17:46 075 0 gusting 3 6.7
2019-Dec-06 17:30 076 6.7
2019-Dec-06 17:16 076 6.7
2019-Dec-06 17:01 076 6.1
2019-Dec-06 16:46 076 6.1
2019-Dec-06 16:16 076 6.1
2019-Dec-06 16:01 076 5.6